Regional Weather Roundup
Issued by NWS

Home | Current Version | Previous Version | Graphics & Text | Print | Product List | Glossary Off
Versions: 1 2 3 4 5 6 7 8 9 10 11 12 13 14 15 16 17 18 19 20 21 22 23 24 25 26 27 28 29 30 31 32 33 34 35 36 37 38 39 40 41 42 43 44 45 46 47 48 49 50

000
ASUS43 KMKX 220400
RWRWI

WISCONSIN REGIONAL WEATHER ROUNDUP
NATIONAL WEATHER SERVICE MILWAUKEE/SULLIVAN WI
1100 PM CDT FRI JUL 21 2017

NOTE: "FAIR" INDICATES FEW OR NO CLOUDS BELOW 12,000 FEET WITH NO
SIGNIFICANT WEATHER AND/OR OBSTRUCTIONS TO VISIBILITY.

WIZ001-002-006>008-014>016-023>028-220500-
NORTHWEST WISCONSIN

CITY           SKY/WX    TMP DP  RH WIND       PRES   REMARKS
SUPERIOR ARPT  NOT AVBL
ASHLAND        LGT RAIN  61  60  97 S12       29.82F
HAYWARD        HVY RAIN  64  62  93 CALM      29.93F FOG
SIREN          LGT RAIN  66  64  94 SE6       29.90F
CUMBERLAND     CLOUDY    64  63  94 N6        29.93F
RICE LAKE      LGT RAIN  67  63  87 CALM      29.94R
CHETEK         CLOUDY    72  66  82 N6G22     29.95R
LADYSMITH      CLOUDY    71  66  85 S3        29.92S
EAU CLAIRE     NOT AVBL
MENOMONIE      CLOUDY    72  68  88 CALM      29.91R
NEW RICHMOND   CLOUDY    72  63  73 NE16G26   29.93R
OSCEOLA        LGT RAIN  68  65  90 E7        29.94R
$$

WIZ003>005-009-010-017-018-220500-
NORTH CENTRAL WISCONSIN

CITY           SKY/WX    TMP DP  RH WIND       PRES   REMARKS
MANITOWISH WTR CLOUDY    72  70  95 W7        29.92R
ARBOR VITAE    CLOUDY    72  68  86 S7        29.93R
WOODRUFF       CLOUDY    72  68  86 S7        29.93R
RHINELANDER    PTCLDY    67  63  87 CALM      29.93S
EAGLE RIVER    CLOUDY    70  64  81 S3        29.93R
LAND O LAKES   MOCLDY    72  65  80 S5        29.93S
PHILLIPS       CLOUDY    67  66  96 CALM      29.91F
TOMAHAWK         N/A     67  62  83 CALM      29.93R
MEDFORD        CLOUDY    65  64  98 CALM      29.90F
MERRILL        CLOUDY    67  65  91 CALM      29.91F
$$

WIZ029-030-035-036-043>047-220500-
CENTRAL WISCONSIN

CITY           SKY/WX    TMP DP  RH WIND       PRES   REMARKS
WAUSAU         CLEAR     65  64  97 CALM      29.88F
MOSINEE        MOCLDY    64  64 100 CALM      29.91F
MARSHFIELD     CLEAR     67  64  90 CALM      29.89F
STEVENS POINT  MOCLDY    65  65 100 CALM      29.90S
WAUPACA        PTCLDY    69  63  82 CALM      29.90S
WAUTOMA        CLOUDY    67  66  97 CALM      29.89F
WISC RAPIDS    PTCLDY    68  67  96 CALM      29.89F FOG
CAMP DOUGLAS   PTCLDY    68  68 100 CALM      29.86F FOG
$$

WIZ011>013-019>022-031-037>040-048>050-220500-
NORTHEAST WISCONSIN

CITY           SKY/WX    TMP DP  RH WIND       PRES   REMARKS
ANTIGO         CLEAR     63  60  90 CALM      29.92F
SHAWANO        CLOUDY    73  63  71 CALM      29.90R
OCONTO         PTCLDY    67  65  93 CALM      29.89S
STURGEON BAY     N/A     72  68  87 S5        29.88F
GREEN BAY      CLOUDY    71  67  87 CALM      29.89S
MANITOWOC      NOT AVBL
APPLETON       CLOUDY    70  61  73 MISG      29.88F
CLINTONVILLE   CLOUDY    72  59  64 CALM      29.89S
OSHKOSH        CLOUDY    69  65  86 S8        29.88F
$$

WIZ032>034-041-042-053>061-220500-
SOUTHWEST WISCONSIN

CITY           SKY/WX    TMP DP  RH WIND       PRES   REMARKS
LA CROSSE      CLOUDY    73  70  90 N3        29.82F
SPARTA         CLOUDY    66  66 100 NE3       29.88F
VIROQUA        CLOUDY    70  70 100 NE8       29.86F
BOSCOBEL       CLOUDY    73  71  93 NE5       29.81F
PRAIRIE DU CHI CLOUDY    71  70  96 CALM      29.81R
PLATTEVILLE    CLOUDY    71  71 100 E12       29.80F
$$

WIZ056-057-062-063-064-067-068-220500-
SOUTH CENTRAL WISCONSIN

CITY           SKY/WX    TMP DP  RH WIND       PRES   REMARKS
REEDSBURG      LGT RAIN  69  69 100 CALM      29.87F
BARABOO/DELLS  LGT RAIN  68  67  94 E6        29.88F
LONE ROCK      CLOUDY    72  69  90 E9        29.83F
MINERAL POINT  CLOUDY    72  72 100 SE9       29.83S
MADISON        CLOUDY    68  67  96 E6        29.84F
MIDDLETON      CLOUDY    70  70 100 E5        29.86S
WATERTOWN      CLOUDY    66  66 100 E8        29.86F
MONROE         CLOUDY    72  70  94 SE7       29.84F
JANESVILLE     LGT RAIN  72  72 100 SE6       29.84F
$$

WIZ051-052-058>065-066-070>072-220500-
SOUTHEAST WISCONSIN

CITY           SKY/WX    TMP DP  RH WIND       PRES   REMARKS
MILWAUKEE      LGT RAIN  66  62  87 E7        29.87F
WAUKESHA       CLOUDY    64  63  94 E10       29.88
MILWAUKEE/TIMM RAIN      66  61  82 E3        29.90F
RACINE         CLOUDY    72  70  93 E7        29.88F FOG
KENOSHA        LGT RAIN  72  69  90 S15       29.85F
FOND DU LAC    CLOUDY    67  61  81 SE5       29.89F
SHEBOYGAN      CLOUDY    65  63  93 S6        29.91F
WEST BEND      LGT RAIN  64  63  94 SE3       29.90F
JUNEAU         RAIN      65  62  91 E6        29.90S
$$

LSZ147-162-220500-
LAKE SUPERIOR

STATION/POSITION TIME  TEMP    WIND        PRES    WAVE
                       AIR SEA DIR/SP/G            HT/PER
                 (UTC) (F)     (DEG/KT/KT) (MB)    (FT/S)
W MID LAKE BUOY  0250   54 48  110/ 10/ 10 1010.3F   1
DEVILS ISLAND    0300   59     190/ 14/ 17 1011.0F
SAXON HARBOR     0340   63     160/  5/  7 1012.2F
$$

LMZ867-665-643>646-220500-
LAKE MICHIGAN

STATION/POSITION TIME  TEMP    WIND        PRES    WAVE
                       AIR SEA DIR/SP/G            HT/PER
                 (UTC) (F)     (DEG/KT/KT) (MB)    (FT/S)
CHAMBERS ISLAND  0340   71     180/  2/  3 1011.2F
S GREEN BAY BUOY 0330   76 76  210/  6/  6 1012.1F
N MID LAKE BUOY  0250   69 67  170/  8/  8 1013.2F   1
NORTHPORT PIER   0340   70     130/  3/  4 1011.5F
KEWAUNEE LAKESHO 0330   73      60/  1/  3 1011.9R
SHEBOYGAN LAKESH 0300   66     200/  8/  9 1012.3R
PORT WASHINGTON  0330   70      30/  5/  7 1013.2S
ATWATER BUOY     0209   71 68  190/  4/  6 1012.9R
MILWAUKEE LAKESH 0330   68      80/  6/  6   N/A
S MID LAKE BUOY  0250   72 71  110/  8/ 12 1012.2R   0
KENOSHA   LAKESH 0300   71      90/  3/  4 1012.5
$$

TC  - TEMPERATURE IN CELSIUS
VSB - VISIBILITY IN STATUTE MILES
WCI - WIND CHILL INDEX
HX  - HEAT INDEX





USA.gov is the U.S. government's official web portal to all federal, state and local government web resources and services.